sat.trackr.live / text

‹ back to catalog

KUIPER-00139

NORAD 65765 · 2025-217D

PAYLOAD ACTIVE UNKNOWN

§ Identity

Operator
Country
US
Launch date
2025-09-25
Launch site
AFETR
Launch vehicle
Mass (kg)
RCS (m²)

External: N2YO · Heavens-Above · Gunter

§ Orbital elements

Epoch: 2026-09-19T16:29:15.806400Z

Period
97.30 min
Inclination
51.8981°
Eccentricity
0.0000790
Mean motion
14.79924984 rev/d
Perigee alt
629.0 km
Apogee alt
630.1 km
Semi-major
7,007.7 km
B*
2.7847e-4
RAAN
242.7544°
Arg perigee
58.1125°
Mean anomaly
301.9914°
Rev number
5,392

§ Raw data

KUIPER-001391 65765U 25217D   26262.68698850  .00001902  00000+0  27847-3 0  99962 65765  51.8981 242.7544 0000790  58.1125 301.9914 14.79924984 53922

JSON: /api/v1/satellites/65765 · /tle

For live sub-satellite position, see the globe view (requires WebGL).

§ Visibility from observer

Set your observer location to see the next 7 days of passes ≥ 10°. The values pass through the URL so the page stays shareable.

No JS? Fill the form by hand. The geolocation button needs JavaScript.